Regional Weather Roundup
Issued by NWS

Home | Current Version | Previous Version | Text Only | Print | Product List | Glossary On
Versions: 1 2 3 4 5 6 7 8 9 10 11 12 13 14 15 16 17 18 19 20 21 22 23 24 25 26 27 28 29 30 31 32 33 34 35 36 37 38 39 40 41 42 43 44 45 46 47 48 49 50
000
ASUS46 KSTO 171715
RWRCA

NORTHERN AND CENTRAL CA REGIONAL WEATHER ROUNDUP
NATIONAL WEATHER SERVICE SACRAMENTO CA
1000 AM PDT THU AUG 17 2017

NOTE: FAIR INDICATES FEW OR NO CLOUDS BELOW 12,000 FEET WITH NO
SIGNIFICANT WEATHER AND/OR OBSTRUCTIONS TO VISIBILITY.

CAZ001-003-171800-
NORTHWEST AREA

CITY           SKY/WX    TMP DP  RH WIND       PRES   REMARKS
CRESCENT CITY  SUNNY     62  54  74 NW8       30.03R
UKIAH          SUNNY     69  55  60 E3        30.01F
$$

CAZ006-505>513-171800-
BAY AREA

CITY           SKY/WX    TMP DP  RH WIND       PRES   REMARKS
SANTA ROSA     CLOUDY    62  56  80 VRB3      30.02R
SAN RAFAEL     N/A       62  MM  MM MISG
NAPA           CLOUDY    65  57  75 W7        30.02S
CONCORD        SUNNY     69  58  67 VRB3      30.01S
OAKLAND CITY   N/A      MM  MM  MM MISG
OAKLAND        CLOUDY    64  59  83 W5        30.03R
SAN FRAN CITY  N/A       61  MM  82 MISG
SAN FRAN ARPT  PTSUNNY   66  57  72 NW7       30.02R
LIVERMORE      SUNNY     69  58  67 CALM      30.00S
HAYWARD        SUNNY     68  56  65 W8        30.02R
REDWOOD CITY   N/A       67  MM  76 MISG
MOFFETT ARPT   SUNNY     68  58  70 NW3       30.03R
SAN JOSE ARPT  SUNNY     69  57  65 CALM      30.02R
$$
CAZ034-037-514>518-171800-
CENTRAL COAST

CITY           SKY/WX    TMP DP  RH WIND       PRES   REMARKS
WATSONVILLE    CLOUDY    63  56  78 S5        30.05R
SALINAS        CLOUDY    63  57  81 CALM      30.04R
MONTEREY       PTSUNNY   63  55  75 NW6       30.05R
SAN LUIS OBISP MOSUNNY   68  56  65 CALM      30.04S
SANTA MARIA    MOSUNNY   63  57  81 NW5       30.05S HAZE
$$
CAZ015-016-171800-
NORTHERN SACRAMENTO VALLEY

CITY           SKY/WX    TMP DP  RH WIND       PRES   REMARKS
REDDING        SUNNY     82  59  45 CALM      29.97S
RED BLUFF      SUNNY     78  62  57 SE5       29.98F
OROVILLE       SUNNY     78  60  53 NW3       29.99S
$$
CAZ016>018-171800-
SOUTHERN SACRAMENTO VALLEY

CITY           SKY/WX    TMP DP  RH WIND       PRES   REMARKS
AUBURN         SUNNY     81  70  69 W3        30.02S
BEALE AFB      SUNNY     76  60  56 CALM      29.96S
LINCOLN          N/A    N/A N/A N/A MISG        N/A
MARYSVILLE     SUNNY     76  59  55 CALM      29.99R
SAC INTL ARPT  SUNNY     72  59  63 S3        29.97S
MATHER AIRPORT SUNNY     73  57  56 S7        29.98S
DOWNTOWN SAC   N/A       73  MM  MM MISG
SAC EXEC ARPT  SUNNY     69  59  70 S5        29.98S
VACAVILLE      SUNNY     76  59  55 CALM      29.99S
TRAVIS AFB     SUNNY     71  57  61 SW15      29.97R
$$
CAZ019>021-171800-
SAN JOAQUIN VALLEY

CITY           SKY/WX    TMP DP  RH WIND       PRES   REMARKS
STOCKTON       SUNNY     75  60  59 VRB3      29.98S
MODESTO        SUNNY     75  59  57 NW6       29.98R
MERCED         SUNNY     77  58  51 NW8       29.97R
LEMOORE        MOSUNNY   82  57  42 NW6       29.98S
FRESNO         SUNNY     80  58  46 NW3       29.98S
HANFORD        SUNNY     80  60  50 VRB3      29.99R
PORTERVILLE      N/A     81  59  47 VRB5      30.00R
BAKERSFIELD    SUNNY     79  57  46 CALM      29.99S
$$
CAZ011-012-071-171800-
NORTHERN MOUNTAINS

CITY           SKY/WX    TMP DP  RH WIND       PRES   REMARKS
YREKA          SUNNY     74  46  36 VRB3      30.17F
MOUNT SHASTA   SUNNY     76  49  38 NW5       30.18S
ALTURAS        SUNNY     71  45  39 CALM      30.23F
$$
CAZ011-012-071-171800-
SIERRA NEVADA MTNS

CITY           SKY/WX    TMP DP  RH WIND       PRES   REMARKS
BLUE CANYON    SUNNY     79  41  25 CALM      30.24R
TAHOE VLY ARPT SUNNY     69  48  47 NE3       30.32R
MAMMOTH LAKES  FAIR      72  38  30 CALM      30.38R
$$




USA.gov is the U.S. government's official web portal to all federal, state and local government web resources and services.